Weather in Malaya Tayaba

Russia / Chuvash Republic     55°13′04″N   47°57′44″E
temp.,
°C
wind,
m/s
gust,
m/s
humid.,
%
clouds,
%
prec.,
mm/h
press.,
hPa
HPBL,
m
19 april, mon
mon1900:00+4ene6125889 0.0 1025441
03:00+2ene61267100 0.0 1025431
06:00+2ene71363100 0.0 1026543
09:00+3e91251100 0.0 1027803
12:00+6e91146100 0.0 10271235
15:00+7e91146100 0.0 10271448
18:00+6e7124999 0.0 10271079
21:00+4e7134681 0.0 1028587
20 april, tue
tue2000:00+2e7155010 0.0 1029435
03:000e714595 0.0 1029367
06:00+1e614625 0.0 1030479
09:00+5ese811410 0.0 1030918
12:00+8ese89350 0.0 10291325
15:00+9ese89303 0.0 10281516
18:00+8ese71236100 0.0 1026857
21:00+5ese81541100 0.0 1025631
21 april, wed
wed2100:00+4ese81746100 0.0 1024737
03:00+4se101848100 0.0 1022747
06:00+3se101958100 0.3 1020741
09:00+1se112185100 1.6 1020734
12:00+2se101988100 1.6 1020834
15:00+2sse101890100 2.2 1020742
18:00+2sse101792100 0.1 1020616
21:00+2sse71495100 0.2 1021506
22 april, thu
thu2200:00+2sse61296100 0.1 1022417
03:00+3sse51097100 0.1 1022334
06:00+3sse5998100 0.0 1023284
09:00+5sse5891100 0.1 1023367
12:00+4sse4896100 1.5 1024351
15:00+8s458489 1.5 1023548
18:00+7sse579098 0.0 1025298
21:00+6sse59956 0.0 1025221
23 april, fri
fri2300:00+5sse48966 0.0 1025151
03:00+4sse369677 0.0 1025111
06:00+4sse3793100 0.0 1025177
09:00+9sse457587 0.0 1025419
12:00+11sse4465100 0.0 1024837
15:00+12se456028 0.0 10231173
18:00+10se467039 0.0 1022531
21:00+8se478582 0.0 1022355